PD0GJC-12 Weather Reports


Display with metric or nautical units.
time (UTC)temp
F
wind
direction
speed
MPH
gust
MPH
rain 1hr
in
rain 24hr
in
rain mn
in
humidity
%
barometer
mb
20260503033545 58 317 3.0 5.0 0.47 3.46 1.34 91 1012.1
20260503032545 58 1 3.0 5.0 0.39 3.39 1.26 91 1012.3
20260503031540 58 176 1.0 2.0 0.31 3.23 1.10 90 1012.5
20260503030540 58 296 1.0 5.0 0.24 3.15 1.02 90 1012.9
20260503025545 58 320 3.0 5.0 0.08 2.99 0.87 90 1013.0
20260503024540 58 303 4.0 6.0 0.08 2.99 0.87 90 1013.1
20260503023540 58 324 3.0 6.0 0.16 2.99 0.87 90 1012.9
20260503022545 58 308 1.0 3.0 0.16 2.99 0.87 89 1012.9
20260503021540 58 0.0 2.0 0.08 2.91 0.79 89 1012.9
20260503020540 57 311 1.0 5.0 0.08 2.91 0.79 89 1012.9
20260503015540 57 312 0.0 4.0 0.08 2.91 0.79 89 1013.0
20260503014540 57 303 3.0 5.0 0.08 2.91 0.79 89 1012.9
20260503013600 58 214 2.0 4.0 0.00 2.83 0.71 89 1012.7
20260503012540 58 327 2.0 4.0 0.00 2.83 0.71 89 1012.8
20260503011545 57 217 2.0 5.0 0.00 2.83 0.71 89 1012.8
20260503010601 57 182 2.0 5.0 0.00 2.83 0.71 90 1012.9
20260503005540 57 289 1.0 4.0 0.00 2.83 0.71 90 1013.0
20260503004600 57 242 3.0 3.0 0.00 2.83 0.71 90 1013.0
20260503003605 57 43 3.0 4.0 0.00 2.83 0.71 89 1013.0
20260503002540 57 322 2.0 5.0 0.00 2.83 0.71 89 1013.2
20260503001605 57 322 2.0 5.0 0.00 2.83 0.71 89 1013.2
20260503000541 57 298 2.0 4.0 0.00 2.83 0.71 89 1013.3
20260502235725 57 329 1.0 3.0 0.00 2.83 0.71 89 1013.6
20260502234546 57 272 1.0 3.0 0.00 2.83 0.71 88 1013.7
20260502233545 57 304 1.0 3.0 0.00 2.83 0.71 88 1013.7
20260502232546 57 167 5.0 6.0 0.08 2.83 0.71 88 1013.7
20260502231549 57 130 5.0 5.0 0.24 2.83 0.71 88 1013.6
20260502230545 57 59 4.0 6.0 0.55 2.83 0.71 88 1013.5
20260502225541 57 146 2.0 5.0 0.87 2.83 0.71 88 1013.7
20260502224601 57 238 5.0 7.0 1.26 2.83 0.71 88 1013.7
20260502223540 56 155 4.0 9.0 1.81 2.83 0.71 87 1013.8
20260502222541 56 125 4.0 7.0 2.76 2.76 0.63 86 1014.1
20260502221541 56 160 6.0 9.0 2.60 2.60 0.47 86 1014.2
20260502220540 56 172 5.0 10.0 2.28 2.28 0.16 86 1014.1
20260502215541 56 166 5.0 6.0 1.97 1.97 1.97 84 1014.8
20260502214541 57 111 5.0 6.0 1.57 1.57 1.57 81 1015.5
20260502213606 57 302 5.0 11.0 1.02 1.02 1.02 78 1016.2
20260502212549 61 297 11.0 19.0 0.00 0.00 0.00 65 1015.8
20260502211540 61 282 2.0 3.0 0.00 0.00 0.00 63 1014.4
20260502210541 61 304 0.0 2.0 0.00 0.00 0.00 62 1014.4
20260502205601 61 214 2.0 3.0 0.00 0.00 0.00 61 1014.5
20260502204540 61 324 2.0 5.0 0.00 0.00 0.00 61 1014.7
20260502203511 61 305 2.0 5.0 0.00 0.00 0.00 62 1014.9
20260502202535 61 98 5.0 6.0 0.00 0.00 0.00 63 1015.0
20260502201540 61 311 1.0 2.0 0.00 0.00 0.00 66 1015.0
20260502200541 61 272 2.0 3.0 0.00 0.00 0.00 64 1015.1
20260502195544 61 0.0 0.0 0.00 0.00 0.00 63 1015.3
20260502194541 61 0.0 1.0 0.00 0.00 0.00 61 1015.3
20260502193541 61 270 1.0 3.0 0.00 0.00 0.00 60 1015.4
20260502192541 61 270 1.0 3.0 0.00 0.00 0.00 60 1015.4
20260502191606 61 279 1.0 4.0 0.00 0.00 0.00 59 1015.3
20260502190541 62 272 3.0 4.0 0.00 0.00 0.00 55 1015.3
20260502185541 63 273 4.0 5.0 0.00 0.00 0.00 54 1015.3
20260502184541 63 276 2.0 4.0 0.00 0.00 0.00 52 1015.5
20260502183549 64 276 1.0 2.0 0.00 0.00 0.00 51 1015.6
20260502182541 65 276 1.0 2.0 0.00 0.00 0.00 49 1015.5
20260502181601 66 272 1.0 4.0 0.00 0.00 0.00 48 1015.5
20260502180546 66 285 3.0 6.0 0.00 0.00 0.00 47 1015.4
20260502163546 68 306 5.0 8.0 0.00 0.00 0.00 46 1016.6
20260502162541 68 278 5.0 10.0 0.00 0.00 0.00 45 1016.8
20260502161542 71 282 5.0 5.0 0.00 0.00 0.00 41 1016.9
20260502160541 70 274 5.0 7.0 0.00 0.00 0.00 43 1016.9
20260502151541 70 280 3.0 7.0 0.00 0.00 0.00 47 1017.2
20260502150601 70 281 7.0 7.0 0.00 0.00 0.00 46 1017.3
20260502130602 68 276 2.0 6.0 0.00 0.00 0.00 54 1018.4
20260502123441 68 313 5.0 10.0 0.00 0.00 0.00 63 1018.8
20260502122341 69 283 5.0 7.0 0.00 0.00 0.00 65 1018.8
20260502121402 68 291 5.0 9.0 0.00 0.00 0.00 68 1018.9
20260502120407 68 291 6.0 8.0 0.00 0.00 0.00 70 1018.9
20260502115342 69 315 5.0 9.0 0.00 0.00 0.00 69 1018.9
20260502114342 68 306 4.0 8.0 0.00 0.00 0.00 69 1018.9
20260502113343 68 307 7.0 12.0 0.00 0.00 0.00 69 1019.1
20260502112343 68 320 8.0 10.0 0.00 0.00 0.00 70 1019.2
20260502111342 68 313 8.0 9.0 0.00 0.00 0.00 71 1019.2
20260502110342 67 315 6.0 11.0 0.00 0.00 0.00 73 1019.1
20260502105341 67 298 8.0 9.0 0.00 0.00 0.00 74 1019.1
20260502104447 67 299 5.0 8.0 0.00 0.00 0.00 75 1019.2
20260502103347 67 290 5.0 11.0 0.00 0.00 0.00 74 1019.2
20260502102402 67 313 7.0 9.0 0.00 0.00 0.00 73 1019.3
20260502101347 66 303 7.0 10.0 0.00 0.00 0.00 74 1019.4
20260502100402 66 300 10.0 15.0 0.00 0.00 0.00 73 1019.4
20260502091342 66 194 3.0 5.0 0.00 0.00 0.00 74 1019.4
20260502090332 65 306 1.0 5.0 0.00 0.00 0.00 77 1019.5
20260502071342 60 0.0 1.0 0.00 0.00 0.00 80 1019.5
20260502070342 60 278 3.0 5.0 0.00 0.00 0.00 80 1019.4
20260502065343 60 311 4.0 6.0 0.00 0.00 0.00 80 1019.5
20260502064347 60 333 4.0 7.0 0.00 0.00 0.00 78 1019.6
20260502063403 60 297 3.0 5.0 0.00 0.00 0.00 76 1019.5
20260502062410 59 309 2.0 3.0 0.00 0.00 0.00 75 1019.5
20260502061344 58 0.0 2.0 0.00 0.00 0.00 73 1019.4
20260502060428 57 0.0 0.0 0.00 0.00 0.00 73 1019.3
20260502055342 57 291 1.0 2.0 0.00 0.00 0.00 72 1019.3
20260502054342 58 0.0 0.0 0.00 0.00 0.00 69 1019.4
20260502053423 57 0.0 2.0 0.00 0.00 0.00 69 1019.4
20260502052342 57 289 1.0 2.0 0.00 0.00 0.00 70 1019.3
20260502051343 55 0.0 2.0 0.00 0.00 0.00 71 1019.3
20260502050343 55 304 2.0 5.0 0.00 0.00 0.00 72 1019.3
20260502045408 55 0.0 2.0 0.00 0.00 0.00 73 1019.0
20260502044343 54 287 1.0 3.0 0.00 0.00 0.00 74 1019.1
20260502043350 54 316 1.0 3.0 0.00 0.00 0.00 75 1019.2
20260502042343 53 305 1.0 2.0 0.00 0.00 0.00 75 1019.3
20260502041343 53 0.0 2.0 0.00 0.00 0.00 74 1019.1
20260502040402 53 0.0 1.0 0.00 0.00 0.00 74 1019.2
20260502035348 54 329 1.0 3.0 0.00 0.00 0.00 73 1019.3
20260502034403 54 311 3.0 4.0 0.00 0.00 0.00 72 1019.4